Overview Statistics Trail Chart Weather Telemetry Raw packets
 

This is the latest recevied weather packets stored in our database for station/object PA1CD-13. If no packets are shown the sender has not sent any weather packets the latest 10 day(s).

<< 2 3 4 5 6 7 8 >>
Time Temp. Humidity Pressure Rain* Wind** Luminosity Snow
1788610324 18.89° C 63% 1018.8 hPa 0 mm - 334 W/m² -
1788610205 18.89° C 63% 1018.8 hPa 0 mm - 246 W/m² -
1788610084 18.89° C 63% 1018.8 hPa 0 mm - 211 W/m² -
1788609964 18.89° C 62% 1018.9 hPa 0 mm - 295 W/m² -
1788609842 18.89° C 62% 1018.7 hPa 0 mm - 338 W/m² -
1788609722 18.89° C 62% 1018.8 hPa 0 mm - 338 W/m² -
1788609604 18.89° C 63% 1018.7 hPa 0 mm - 246 W/m² -
1788609482 19.44° C 63% 1018.6 hPa 0 mm - 185 W/m² -
1788609363 19.44° C 63% 1018.6 hPa 0 mm - 336 W/m² -
1788609243 19.44° C 62% 1018.6 hPa 0 mm - 336 W/m² -
1788609123 19.44° C 62% 1018.6 hPa 0 mm - 353 W/m² -
1788609003 19.44° C 61% 1018.6 hPa 0 mm - 269 W/m² -
1788608883 19.44° C 62% 1018.6 hPa 0 mm - 237 W/m² -
1788608762 19.44° C 61% 1018.4 hPa 0 mm - 345 W/m² -
1788608643 20° C 62% 1018.5 hPa 0 mm - 580 W/m² -
1788608523 19.44° C 63% 1018.4 hPa 0 mm - 580 W/m² -
1788608403 19.44° C 63% 1018.5 hPa 0 mm - 733 W/m² -
1788608282 19.44° C 64% 1018.2 hPa 0 mm - 724 W/m² -
1788608164 19.44° C 63% 1018.2 hPa 0 mm - 703 W/m² -
1788608043 19.44° C 64% 1018.1 hPa 0 mm - 695 W/m² -
1788607923 19.44° C 64% 1018.1 hPa 0 mm - 659 W/m² -
1788607804 19.44° C 64% 1018.3 hPa 0 mm - 675 W/m² -
1788607682 19.44° C 64% 1018.1 hPa 0 mm - 675 W/m² -
1788607563 19.44° C 64% 1018.1 hPa 0 mm - 691 W/m² -
1788607442 19.44° C 64% 1018.1 hPa 0 mm - 192 W/m² -

* Rain latest hour (hover to see other rain measurements)
** Current wind speed in m/s (hover to see current wind gust speed)